Regional Weather Roundup
Issued by NWS

Home | Current Version | Previous Version | Graphics & Text | Print | Product List | Glossary On
Versions: 1 2 3 4 5 6 7 8 9 10 11 12 13 14 15 16 17 18 19 20 21 22 23 24 25 26 27 28 29 30 31 32 33 34 35 36 37 38 39 40 41 42 43 44 45 46 47 48 49 50
000
ASUS43 KIND 192100
RWRIN

WEATHER ROUNDUP FOR INDIANA
NATIONAL WEATHER SERVICE INDIANAPOLIS IN
500 PM EDT THU OCT 19 2017

NOTE: "FAIR" INDICATES FEW OR NO CLOUDS BELOW 12,000 FEET WITH NO
SIGNIFICANT WEATHER AND/OR OBSTRUCTIONS TO VISIBILITY.

* - STATION DOES NOT REPORT WEATHER SUCH AS PRECIPITATION OR FOG.

+ - STATION NOT QUALITY CONTROLLED BY THE NATIONAL WEATHER SERVICE.
    USE DATA WITH CAUTION...ESPECIALLY DEWPOINT AND RELATIVE
    HUMIDITY OBSERVATIONS.

INZ001>003-010>013-019-020-192200-
NORTHWEST INDIANA

CITY           SKY/WX    TMP DP  RH WIND       PRES   REMARKS
GARY /AIRPORT/ PTSUNNY   64  34  32 NE6       30.19S
KNOX *+        SUNNY     68  34  28 N6        30.17S
LA PORTE +     SUNNY     65  33  30 N6        30.19S
MICHIGAN CITY+ SUNNY     63  37  39 N3        30.19F
MONTICELLO +   SUNNY     74  49  40 W5        30.16S
RENSSELAER +   SUNNY     72  32  23 CALM      30.17S

$$

LMZ046-743>745-192200-
SOUTHERN LAKE MICHIGAN

STATION/POSITION TIME  TEMP    WIND        PRES    WAVE
                       AIR SEA DIR/SP/G            HT
                 (UTC) (F)     (DEG/KT/KT) (MB)    (FT)
BURNS HARBOR     2040   61      40/  5/  6 1022.7S
MICHIGAN CITY    2030   62     360/  4/  4   N/A
5NW MICH CITY    2050   60 59   30/  2/  4   N/A     1

$$

INZ004-005-014>016-021>024-192200-
NORTH CENTRAL INDIANA

CITY           SKY/WX    TMP DP  RH WIND       PRES   REMARKS
ELKHART        SUNNY     66  27  22 W8        30.18R
GOSHEN         SUNNY     67  32  27 NW9       30.17R
PERU/GRISSOM   SUNNY     73  51  46 W8        30.16S
SOUTH BEND     SUNNY     65  30  27 NW7       30.18S
WARSAW +       SUNNY     70  41  35 NW7       30.17S

$$

INZ006>009-017-018-025>027-192200-
NORTHEAST INDIANA

CITY           SKY/WX    TMP DP  RH WIND       PRES   REMARKS
AUBURN +       SUNNY     70  36  28 W9        30.17R
FORT WAYNE     PTSUNNY   71  49  45 W10       30.16S
KENDALLVILLE + SUNNY     68  40  35 NW6       30.17R

$$

INZ028-029-035-036-043>045-051>053-192200-
WEST CENTRAL INDIANA

CITY           SKY/WX    TMP DP  RH WIND       PRES   REMARKS
GREENCASTLE +  SUNNY     72  50  46 CALM      30.19S
LAFAYETTE      SUNNY     73  53  49 SW5       30.16S
TERRE HAUTE    SUNNY     74  51  44 S6        30.18S

$$

INZ030>032-037>040-046>048-054>057-064-065-192200-
CENTRAL INDIANA

CITY           SKY/WX    TMP DP  RH WIND       PRES   REMARKS
COLUMBUS       SUNNY     73  41  31 SW5       30.19S
FRANKFORT +    MOSUNNY   76  53  44 NW7       30.19S
GREENWOOD *+   SUNNY     78  51  39 W9        30.19S
INDIANAPOLIS   MOSUNNY   74  51  44 SW10      30.18S
-EAGLE CREEK   SUNNY     74  50  42 W5        30.17S
KOKOMO +       SUNNY     73  52  47 SW9       30.18S
MT COMFORT *+  SUNNY     73  57  56 SW6       30.19S
SHELBYVILLE    SUNNY     76  49  38 SW7       30.17F

$$

INZ033-034-041-042-049-050-058-059-192200-
EAST CENTRAL INDIANA

CITY           SKY/WX    TMP DP  RH WIND       PRES   REMARKS
MUNCIE         SUNNY     74  49  41 VRB7      30.17S
RICHMOND +     SUNNY     72  48  43 W10       30.20S

$$

INZ060-061-067>069-081>083-085>088-192200-
SOUTHWEST INDIANA

CITY           SKY/WX    TMP DP  RH WIND       PRES   REMARKS
EVANSVILLE     SUNNY     76  51  41 SW5       30.19S
HUNTINGBURG +  SUNNY     74  53  48 SW9       30.20S

$$

INZ062-063-066-070>080-084-089>092-192200-
SOUTH CENTRAL AND SOUTHEAST INDIANA

CITY           SKY/WX    TMP DP  RH WIND       PRES   REMARKS
BLOOMINGTON    SUNNY     74  49  41 SW7       30.19S
MADISON *+     SUNNY     73  46  38 SW5       30.23S
SEYMOUR +      SUNNY     77  52  41 W9        30.19S

$$





USA.gov is the U.S. government's official web portal to all federal, state and local government web resources and services.